Weather Roundup
Issued by NWS Corpus Christi, TX

Home | Current Version | Previous Version | Text Only | Print | Product List | Glossary On
Versions: 1 2 3 4 5 6 7 8 9 10 11 12 13 14 15 16 17 18 19 20 21 22 23 24 25 26 27 28 29 30 31 32 33 34 35 36 37 38 39 40 41 42 43 44 45 46 47 48 49 50
000
ASUS44 KCRP 010810
HRRCRP

SOUTH TEXAS REGIONAL WEATHER ROUNDUP
NATIONAL WEATHER SERVICE CORPUS CHRISTI TX
300 AM CDT WED OCT 01 2014


TXZ229>244-010900-
...CORPUS CHRISTI AREA OBSERVATIONS...

CITY           SKY/WX    TMP DP  RH WIND       PRES   REMARKS
CORPUS CHRISTI MOCLDY    76  75  97 S5        29.78S
NAS CORPUS CHR CLEAR    N/A N/A N/A S7        29.78S
ROCKPORT       CLEAR     79  77  94 SE6       29.78R
ALICE          FOG       74  73  97 CALM      29.78S VSB 1/4
FALFURRIAS     CLEAR     74  73  97 S5        29.78S
$$

...VICTORIA AREA OBSERVATIONS...

CITY           SKY/WX    TMP DP  RH WIND       PRES   REMARKS
VICTORIA       FOG       75  74  96 E3        29.80S VSB 1/4
BEEVILLE       FOG       73  73 100 E3        29.80S VSB 1/4
PLEASANTON     CLOUDY    75  73  92 E3        29.81S
SAN ANTONIO    CLOUDY    77  73  87 S12       29.82S
$$

...LAREDO AREA OBSERVATIONS...

CITY           SKY/WX    TMP DP  RH WIND       PRES   REMARKS
LAREDO         CLEAR     77  77 100 SE7       29.81R
COTULLA        CLEAR     75  72  90 SE7       29.79S
DEL RIO        CLEAR     73  67  81 E9        29.78S
MCALLEN        CLEAR     77  75  93 S6        29.79S
HEBBRONVILLE   FOG       75  73  96 S5        29.80F VSB 1
$$

...OTHER TEXAS OBSERVATIONS...

CITY           SKY/WX    TMP DP  RH WIND       PRES   REMARKS
BROWNSVILLE    CLEAR     77  77 100 S5        29.79F
HOUSTON        MOCLDY    75  75 100 CALM      29.81R
COL. STATION   MOCLDY    74  72  93 S3        29.81S
AUSTIN         MOCLDY    74  73  97 S6        29.81S
WACO           CLEAR     75  70  84 S10       29.81R
FORT WORTH     CLEAR     77  69  76 S10       29.78S
WICHITA FALLS  CLOUDY    74  61  63 S14       29.73S
LUBBOCK        CLEAR     64  54  69 SW10      29.80S
EL PASO        CLEAR     68  38  33 SW5       29.89S
$$

...MARINE OBSERVATIONS...

STATION/POSITION TIME  SKY/WX   TEMP    WIND        PRES    VSBY  WAVE   SWELL
                                AIR SEA DIR/SP/G                  HT/PER HT/PER
                 (UTC)          (F)     (DEG/KT/KT) (MB)    (MI)  (FT/S) (FT/S)
PORT ARANSAS     0800            81 81  160/ 10/ 10 1008.9S
BUOY 90 E PORT A 0800            83 83  190/ 10/ 12 1009.1S         2/ 6   2/ 6
BUOY 45 SE BAFFI 0800            82 83  180/ 14/ 16 1008.0S         2/ 3
BUOY 200 E PT IS 0800            83 84  180/ 14/ 16 1009.8F         2/ 3
BUOY 15 E GALVES 0800            81 81  150/ 12/ 14 1008.8S         2/ 4
$$



USA.gov is the U.S. government's official web portal to all federal, state and local government web resources and services.